START_TIME,STEP,MOV.,M29,t_acc.,H22,t_acc.,H26,t_acc.,H30,t_acc.
1979-07-01 06:00:32.880 ,1,1,0.,24.0,0.,24.0,0.,24.0,0.,24.0
1979-07-01 06:00:56.880 ,2,1,0.,24.0,0.,24.0,0.,24.0,0.,24.0
1979-07-01 06:01:20.880 ,6,1,0.,24.0,0.,24.0,0.,24.0,0.,24.0
1979-07-01 06:01:44.880 ,5,1,0.,24.0,0.,24.0,0.,24.0,0.,24.0
1979-07-01 06:02:08.880 ,1,1,0.,24.0,0.,24.0,0.,24.0,0.,24.0
1979-07-01 06:02:32.880 ,2,1,0.,24.0,0.,24.0,0.,24.0,0.,24.0
1979-07-01 06:02:56.880 ,6,1,0.,24.0,0.,24.0,0.,24.0,0.,24.0
1979-07-01 06:03:20.880 ,5,1,0.,24.0,0.,24.0,0.,24.0,0.,24.0
1979-07-01 06:03:44.880 ,1,1,0.,24.0,0.,24.0,0.,24.0,0.,24.0
1979-07-01 06:04:08.880 ,2,1,0.,24.0,0.,24.0,0.,24.0,0.,24.0
1979-07-01 06:04:32.880 ,6,1,0.,24.0,0.,24.0,0.,24.0,0.,24.0
1979-07-01 06:04:56.880 ,5,1,0.,24.0,0.,24.0,0.,24.0,0.,24.0
1979-07-01 06:05:20.880 ,1,1,0.,24.0,0.,24.0,0.,24.0,0.,24.0
1979-07-01 06:05:44.880 ,0,0,0.,24.0,0.,24.0,0.,24.0,0.,24.0
1979-07-01 06:06:08.880 ,0,0,0.,24.0,0.,24.0,0.,24.0,0.,24.0
1979-07-01 06:06:32.880 ,5,1,0.,24.0,0.,24.0,0.,24.0,0.,24.0
1979-07-01 06:06:56.880 ,5,0,0.,24.0,0.,24.0,0.,24.0,0.,24.0
1979-07-01 06:07:20.880 ,4,1,0.,24.0,0.,24.0,0.,24.0,0.,24.0
1979-07-01 06:07:44.880 ,4,0,0.,24.0,0.,24.0,0.,24.0,0.,24.0
1979-07-01 06:08:08.880 ,3,1,0.,24.0,0.,24.0,0.,24.0,0.,24.0
1979-07-01 06:08:32.880 ,3,0,0.,24.0,0.,24.0,0.,24.0,0.,24.0
1979-07-01 06:08:56.880 ,2,1,0.,24.0,0.,24.0,0.,24.0,0.,24.0
1979-07-01 06:09:20.880 ,2,0,0.,24.0,0.,24.0,0.,24.0,0.,24.0
1979-07-01 06:09:44.880 ,1,1,0.,24.0,0.,24.0,0.,24.0,0.,24.0
1979-07-01 06:10:08.880 ,1,0,0.,24.0,0.,24.0,0.,24.0,0.,24.0
1979-07-01 06:10:32.880 ,0,1,0.,24.0,0.,24.0,0.,24.0,0.,24.0
1979-07-01 06:10:56.880 ,0,0,0.,24.0,0.,24.0,0.,24.0,0.,24.0
1979-07-01 06:11:20.880 ,0,1,0.,24.0,0.,24.0,0.,24.0,0.,24.0
1979-07-01 06:11:44.880 ,0,0,0.,24.0,0.,24.0,0.,24.0,0.,24.0
1979-07-01 06:12:08.880 ,1,1,0.,24.0,0.,24.0,0.,24.0,0.,24.0
1979-07-01 06:12:32.880 ,1,0,0.,24.0,0.,24.0,0.,24.0,0.,24.0
1979-07-01 06:12:56.880 ,2,1,0.,24.0,0.,24.0,0.,24.0,0.,24.0
1979-07-01 06:13:20.880 ,2,0,0.,24.0,0.,24.0,0.,24.0,0.,24.0
1979-07-01 06:13:44.880 ,3,1,0.,24.0,0.,24.0,0.,24.0,0.,24.0
1979-07-01 06:14:08.880 ,3,0,0.,24.0,0.,24.0,0.,24.0,0.,24.0
1979-07-01 06:14:32.880 ,4,1,0.,24.0,0.,24.0,0.,24.0,0.,24.0
1979-07-01 06:14:56.880 ,4,0,0.,24.0,0.,24.0,0.,24.0,0.,24.0
1979-07-01 06:15:20.880 ,5,1,0.,24.0,0.,24.0,0.,24.0,0.,24.0
1979-07-01 06:15:44.880 ,5,0,0.,24.0,0.,24.0,0.,24.0,0.,24.0
1979-07-01 06:16:08.880 ,6,1,0.,24.0,0.,24.0,0.,24.0,0.,24.0
1979-07-01 06:16:32.880 ,6,0,0.,24.0,0.,24.0,0.,24.0,0.,24.0
1979-07-01 06:16:56.880 ,7,1,0.,24.0,0.,24.0,0.,24.0,0.,24.0
1979-07-01 06:17:20.880 ,7,0,0.,24.0,0.,24.0,0.,24.0,0.,24.0
1979-07-01 06:17:44.880 ,7,1,0.,24.0,0.,24.0,0.,24.0,0.,24.0
1979-07-01 06:18:08.880 ,7,0,0.,24.0,0.,24.0,0.,24.0,0.,24.0
1979-07-01 06:18:32.880 ,6,1,0.,24.0,0.,24.0,0.,24.0,0.,24.0
1979-07-01 06:18:56.880 ,6,0,0.,24.0,0.,24.0,0.,24.0,0.,24.0
1979-07-01 06:19:20.880 ,5,1,0.,24.0,0.,24.0,0.,24.0,0.,24.0
1979-07-01 06:19:44.880 ,5,0,0.,24.0,0.,24.0,0.,24.0,0.,24.0
1979-07-01 06:20:08.880 ,4,1,0.,24.0,0.,24.0,0.,24.0,0.,24.0
1979-07-01 06:20:32.880 ,4,0,0.,24.0,0.,24.0,0.,24.0,0.,24.0
1979-07-01 06:20:56.880 ,3,1,0.,24.0,0.,24.0,0.,24.0,0.,24.0
1979-07-01 06:21:20.880 ,3,0,0.,24.0,0.,24.0,0.,24.0,0.,24.0
1979-07-01 06:21:44.880 ,2,1,0.,24.0,0.,24.0,0.,24.0,0.,24.0
1979-07-01 06:22:08.880 ,2,0,0.,24.0,0.,24.0,0.,24.0,0.,24.0
1979-07-01 06:22:32.880 ,1,1,0.,24.0,0.,24.0,0.,24.0,0.,24.0
1979-07-01 06:22:56.880 ,1,0,0.,24.0,0.,24.0,0.,24.0,0.,24.0
1979-07-01 06:23:20.880 ,0,1,0.,24.0,0.,24.0,0.,24.0,0.,24.0
1979-07-01 06:23:44.880 ,0,0,0.,24.0,0.,24.0,0.,24.0,0.,24.0
1979-07-01 06:24:08.880 ,0,1,0.,24.0,0.,24.0,0.,24.0,0.,24.0
1979-07-01 06:24:32.880 ,0,0,0.,24.0,0.,24.0,0.,24.0,0.,24.0
1979-07-01 06:24:56.880 ,1,1,0.,24.0,0.,24.0,0.,24.0,0.,24.0
1979-07-01 06:25:20.880 ,1,0,0.,24.0,0.,24.0,0.,24.0,0.,24.0
1979-07-01 06:25:44.880 ,2,1,0.,24.0,0.,24.0,0.,24.0,0.,24.0
1979-07-01 06:26:08.880 ,2,0,0.,24.0,0.,24.0,0.,24.0,0.,24.0
1979-07-01 06:26:32.880 ,3,1,0.,24.0,0.,24.0,0.,24.0,0.,24.0
1979-07-01 06:26:56.880 ,3,0,0.,24.0,0.,24.0,0.,24.0,0.,24.0
1979-07-01 06:27:20.880 ,4,1,0.,24.0,0.,24.0,0.,24.0,0.,24.0
1979-07-01 06:27:44.880 ,4,0,0.,24.0,0.,24.0,0.,24.0,0.,24.0
1979-07-01 06:28:08.880 ,5,1,0.,24.0,0.,24.0,0.,24.0,0.,24.0
1979-07-01 06:28:32.880 ,5,0,0.,24.0,0.,24.0,0.,24.0,0.,24.0
1979-07-01 06:28:56.880 ,6,1,0.,24.0,0.,24.0,0.,24.0,0.,24.0
1979-07-01 06:29:20.880 ,6,0,0.,24.0,0.,24.0,0.,24.0,0.,24.0
1979-07-01 06:29:44.880 ,7,1,0.,24.0,0.,24.0,0.,24.0,0.,24.0
1979-07-01 06:30:08.880 ,7,0,0.,24.0,0.,24.0,0.,24.0,0.,24.0
1979-07-01 06:30:32.880 ,7,1,0.,24.0,0.,24.0,0.,24.0,0.,24.0
1979-07-01 06:30:56.880 ,7,0,1.,24.0,0.,24.0,0.,24.0,0.,24.0
1979-07-01 06:31:20.880 ,6,1,0.,24.0,0.,24.0,0.,24.0,0.,24.0
1979-07-01 06:31:44.880 ,6,0,0.,24.0,0.,24.0,0.,24.0,0.,24.0
1979-07-01 06:32:08.880 ,5,1,0.,24.0,0.,24.0,0.,24.0,0.,24.0
1979-07-01 06:32:32.880 ,5,0,0.,24.0,0.,24.0,0.,24.0,0.,24.0
1979-07-01 06:32:56.880 ,4,1,0.,24.0,0.,24.0,0.,24.0,0.,24.0
1979-07-01 06:33:20.880 ,4,0,0.,24.0,0.,24.0,0.,24.0,0.,24.0
1979-07-01 06:33:44.880 ,3,1,0.,24.0,0.,24.0,0.,24.0,0.,24.0
1979-07-01 06:34:08.880 ,3,0,0.,24.0,0.,24.0,0.,24.0,0.,24.0
1979-07-01 06:34:32.880 ,2,1,0.,24.0,0.,24.0,0.,24.0,0.,24.0
1979-07-01 06:34:56.880 ,2,0,0.,24.0,0.,24.0,0.,24.0,0.,24.0
1979-07-01 06:35:20.880 ,1,1,0.,24.0,0.,24.0,0.,24.0,0.,24.0
1979-07-01 06:35:44.880 ,1,0,0.,24.0,0.,24.0,0.,24.0,0.,24.0
1979-07-01 06:36:08.880 ,0,1,0.,24.0,0.,24.0,0.,24.0,0.,24.0
1979-07-01 06:36:32.880 ,0,0,0.,24.0,0.,24.0,0.,24.0,0.,24.0
1979-07-01 06:36:56.880 ,0,1,0.,24.0,0.,24.0,0.,24.0,0.,24.0
1979-07-01 06:37:20.880 ,0,0,0.,24.0,0.,24.0,0.,24.0,0.,24.0
1979-07-01 06:37:44.880 ,1,1,0.,24.0,0.,24.0,0.,24.0,0.,24.0
1979-07-01 06:38:08.880 ,1,0,0.,24.0,0.,24.0,0.,24.0,0.,24.0
1979-07-01 06:38:32.880 ,2,1,0.,24.0,0.,24.0,0.,24.0,0.,24.0
1979-07-01 06:38:56.880 ,2,0,0.,24.0,0.,24.0,0.,24.0,0.,24.0
1979-07-01 06:39:20.880 ,3,1,0.,24.0,0.,24.0,0.,24.0,0.,24.0
1979-07-01 06:39:44.880 ,3,0,0.,24.0,0.,24.0,0.,24.0,0.,24.0
1979-07-01 06:40:08.880 ,4,1,0.,24.0,0.,24.0,0.,24.0,0.,24.0
1979-07-01 06:40:32.880 ,4,0,0.,24.0,0.,24.0,0.,24.0,0.,24.0
1979-07-01 06:40:56.880 ,5,1,0.,24.0,0.,24.0,0.,24.0,0.,24.0
1979-07-01 06:41:20.880 ,5,0,0.,24.0,0.,24.0,0.,24.0,0.,24.0
1979-07-01 06:41:44.880 ,6,1,0.,24.0,0.,24.0,0.,24.0,0.,24.0
1979-07-01 06:42:08.880 ,6,0,0.,24.0,0.,24.0,0.,24.0,0.,24.0
1979-07-01 06:42:32.880 ,7,0,0.,24.0,0.,24.0,0.,24.0,0.,24.0
1979-07-01 06:42:56.880 ,7,0,0.,24.0,0.,24.0,0.,24.0,0.,24.0
1979-07-01 06:43:20.880 ,5,1,0.,24.0,0.,24.0,0.,24.0,0.,24.0
1979-07-01 06:43:44.880 ,1,1,0.,24.0,0.,24.0,0.,24.0,0.,24.0
1979-07-01 06:44:08.880 ,2,1,0.,24.0,0.,24.0,0.,24.0,0.,24.0
1979-07-01 06:44:32.880 ,6,1,0.,24.0,0.,24.0,0.,24.0,0.,24.0
1979-07-01 06:44:56.880 ,5,1,0.,24.0,0.,24.0,0.,24.0,0.,24.0
1979-07-01 06:45:20.880 ,1,1,1.,24.0,0.,24.0,0.,24.0,0.,24.0
1979-07-01 06:45:44.880 ,2,1,0.,24.0,0.,24.0,0.,24.0,0.,24.0
1979-07-01 06:46:08.880 ,6,1,0.,24.0,0.,24.0,0.,24.0,0.,24.0
1979-07-01 06:46:32.880 ,5,1,0.,24.0,0.,24.0,0.,24.0,0.,24.0
1979-07-01 06:46:56.880 ,1,1,0.,24.0,0.,24.0,0.,24.0,0.,24.0
1979-07-01 06:47:20.880 ,2,1,0.,24.0,0.,24.0,0.,24.0,0.,24.0
1979-07-01 06:47:44.880 ,6,1,0.,24.0,0.,24.0,0.,24.0,0.,24.0
1979-07-01 06:48:08.880 ,5,1,0.,24.0,0.,24.0,0.,24.0,0.,24.0
1979-07-01 06:48:32.880 ,1,1,0.,24.0,0.,24.0,0.,24.0,0.,24.0
1979-07-01 06:48:56.880 ,2,1,0.,24.0,0.,24.0,0.,24.0,0.,24.0
1979-07-01 06:49:20.880 ,6,1,0.,24.0,0.,24.0,0.,24.0,0.,24.0
1979-07-01 06:49:44.880 ,5,1,0.,24.0,0.,24.0,0.,24.0,0.,24.0
1979-07-01 06:50:08.880 ,1,1,0.,24.0,0.,24.0,0.,24.0,0.,24.0
1979-07-01 06:50:32.880 ,2,1,0.,24.0,0.,24.0,0.,24.0,0.,24.0
1979-07-01 06:50:56.880 ,6,1,0.,24.0,0.,24.0,0.,24.0,0.,24.0
1979-07-01 06:51:20.880 ,5,1,0.,24.0,0.,24.0,0.,24.0,0.,24.0
1979-07-01 06:51:44.880 ,1,1,0.,24.0,0.,24.0,0.,24.0,0.,24.0
1979-07-01 06:52:08.880 ,2,1,0.,24.0,0.,24.0,0.,24.0,0.,24.0
1979-07-01 06:52:32.880 ,6,1,0.,24.0,0.,24.0,0.,24.0,0.,24.0
1979-07-01 06:52:56.880 ,5,1,0.,24.0,0.,24.0,0.,24.0,0.,24.0
1979-07-01 06:53:20.880 ,1,1,0.,24.0,0.,24.0,0.,24.0,0.,24.0
1979-07-01 06:53:44.880 ,0,0,0.,24.0,0.,24.0,0.,24.0,0.,24.0
1979-07-01 06:54:08.880 ,0,0,0.,24.0,0.,24.0,0.,24.0,0.,24.0
1979-07-01 06:54:32.880 ,5,1,0.,24.0,0.,24.0,0.,24.0,0.,24.0
1979-07-01 06:54:56.880 ,5,0,0.,24.0,0.,24.0,0.,24.0,0.,24.0
1979-07-01 06:55:20.880 ,4,1,0.,24.0,0.,24.0,0.,24.0,0.,24.0
1979-07-01 06:55:44.880 ,4,0,0.,24.0,0.,24.0,0.,24.0,0.,24.0
1979-07-01 06:56:08.880 ,3,1,0.,24.0,0.,24.0,0.,24.0,0.,24.0
1979-07-01 06:56:32.880 ,3,0,0.,24.0,0.,24.0,0.,24.0,0.,24.0
1979-07-01 06:56:56.880 ,2,1,0.,24.0,0.,24.0,0.,24.0,1.,24.0
1979-07-01 06:57:20.880 ,2,0,0.,24.0,0.,24.0,0.,24.0,0.,24.0
1979-07-01 06:57:44.880 ,1,1,0.,24.0,0.,24.0,0.,24.0,0.,24.0
1979-07-01 06:58:08.880 ,1,0,0.,24.0,0.,24.0,0.,24.0,0.,24.0
1979-07-01 06:58:32.880 ,0,1,0.,24.0,0.,24.0,0.,24.0,0.,24.0
1979-07-01 06:58:56.880 ,0,0,0.,24.0,0.,24.0,0.,24.0,0.,24.0
1979-07-01 06:59:20.880 ,0,1,0.,24.0,0.,24.0,0.,24.0,0.,24.0
1979-07-01 06:59:44.880 ,0,0,0.,24.0,0.,24.0,0.,24.0,0.,24.0
1979-07-01 07:00:08.880 ,1,1,0.,24.0,0.,24.0,0.,24.0,0.,24.0
1979-07-01 07:00:32.880 ,1,0,0.,24.0,0.,24.0,0.,24.0,0.,24.0
1979-07-01 07:00:56.880 ,2,1,0.,24.0,0.,24.0,0.,24.0,0.,24.0
1979-07-01 07:01:20.880 ,2,0,0.,24.0,0.,24.0,0.,24.0,0.,24.0
1979-07-01 07:01:44.880 ,3,1,0.,24.0,0.,24.0,0.,24.0,0.,24.0
1979-07-01 07:02:08.880 ,3,0,1.,24.0,0.,24.0,0.,24.0,0.,24.0
1979-07-01 07:02:32.880 ,4,1,0.,24.0,0.,24.0,0.,24.0,0.,24.0
1979-07-01 07:02:56.880 ,4,0,0.,24.0,0.,24.0,0.,24.0,0.,24.0
1979-07-01 07:03:20.880 ,5,1,0.,24.0,0.,24.0,0.,24.0,0.,24.0
1979-07-01 07:03:44.880 ,5,0,0.,24.0,0.,24.0,0.,24.0,0.,24.0
1979-07-01 07:04:08.880 ,6,1,0.,24.0,0.,24.0,0.,24.0,0.,24.0
1979-07-01 07:04:32.880 ,6,0,0.,24.0,0.,24.0,0.,24.0,0.,24.0
1979-07-01 07:04:56.880 ,7,1,0.,24.0,0.,24.0,0.,24.0,0.,24.0
1979-07-01 07:05:20.880 ,7,0,0.,24.0,0.,24.0,0.,24.0,0.,24.0
1979-07-01 07:05:44.880 ,7,1,0.,24.0,0.,24.0,0.,24.0,0.,24.0
1979-07-01 07:06:08.880 ,7,0,0.,24.0,0.,24.0,0.,24.0,0.,24.0
1979-07-01 07:06:32.880 ,6,1,0.,24.0,0.,24.0,0.,24.0,0.,24.0
1979-07-01 07:06:56.880 ,6,0,0.,24.0,0.,24.0,0.,24.0,0.,24.0
1979-07-01 07:07:20.880 ,5,1,0.,24.0,0.,24.0,0.,24.0,0.,24.0
1979-07-01 07:07:44.880 ,5,0,0.,24.0,0.,24.0,0.,24.0,0.,24.0
1979-07-01 07:08:08.880 ,4,1,0.,24.0,0.,24.0,0.,24.0,0.,24.0
1979-07-01 07:08:32.880 ,4,0,0.,24.0,0.,24.0,0.,24.0,0.,24.0
1979-07-01 07:08:56.880 ,3,1,0.,24.0,0.,24.0,0.,24.0,0.,24.0
1979-07-01 07:09:20.880 ,3,0,0.,24.0,0.,24.0,0.,24.0,0.,24.0
1979-07-01 07:09:44.880 ,2,1,0.,24.0,0.,24.0,0.,24.0,0.,24.0
1979-07-01 07:10:08.880 ,2,0,0.,24.0,0.,24.0,0.,24.0,0.,24.0
1979-07-01 07:10:32.880 ,1,1,0.,24.0,0.,24.0,0.,24.0,0.,24.0
1979-07-01 07:10:56.880 ,1,0,0.,24.0,0.,24.0,0.,24.0,0.,24.0
1979-07-01 07:11:20.880 ,0,1,0.,24.0,0.,24.0,0.,24.0,0.,24.0
1979-07-01 07:11:44.880 ,0,0,0.,24.0,0.,24.0,0.,24.0,0.,24.0
1979-07-01 07:12:08.880 ,0,1,0.,24.0,0.,24.0,0.,24.0,0.,24.0
1979-07-01 07:12:32.880 ,0,0,0.,24.0,0.,24.0,0.,24.0,0.,24.0
1979-07-01 07:12:56.880 ,1,1,0.,24.0,0.,24.0,0.,24.0,0.,24.0
1979-07-01 07:13:20.880 ,1,0,0.,24.0,0.,24.0,0.,24.0,0.,24.0
1979-07-01 07:13:44.880 ,2,1,0.,24.0,0.,24.0,0.,24.0,0.,24.0
1979-07-01 07:14:08.880 ,2,0,0.,24.0,0.,24.0,0.,24.0,0.,24.0
1979-07-01 07:14:32.880 ,3,1,0.,24.0,0.,24.0,0.,24.0,0.,24.0
1979-07-01 07:14:56.880 ,3,0,0.,24.0,0.,24.0,0.,24.0,0.,24.0
1979-07-01 07:15:20.880 ,4,1,0.,24.0,0.,24.0,0.,24.0,0.,24.0
1979-07-01 07:15:44.880 ,4,0,0.,24.0,0.,24.0,0.,24.0,0.,24.0
1979-07-01 07:16:08.880 ,5,1,0.,24.0,0.,24.0,0.,24.0,0.,24.0
1979-07-01 07:16:32.880 ,5,0,0.,24.0,0.,24.0,0.,24.0,0.,24.0
1979-07-01 07:16:56.880 ,6,1,0.,24.0,0.,24.0,0.,24.0,0.,24.0
1979-07-01 07:17:20.880 ,6,0,0.,24.0,0.,24.0,0.,24.0,0.,24.0
1979-07-01 07:17:44.880 ,7,1,0.,24.0,0.,24.0,0.,24.0,0.,24.0
1979-07-01 07:18:08.880 ,7,0,0.,24.0,0.,24.0,0.,24.0,0.,24.0
1979-07-01 07:18:32.880 ,7,1,0.,24.0,0.,24.0,0.,24.0,0.,24.0
1979-07-01 07:18:56.880 ,7,0,0.,24.0,0.,24.0,0.,24.0,0.,24.0
1979-07-01 07:19:20.880 ,6,1,0.,24.0,0.,24.0,0.,24.0,0.,24.0
1979-07-01 07:19:44.880 ,6,0,0.,24.0,0.,24.0,0.,24.0,0.,24.0
1979-07-01 07:20:08.880 ,5,1,0.,24.0,0.,24.0,0.,24.0,0.,24.0
1979-07-01 07:20:32.880 ,5,0,0.,24.0,0.,24.0,0.,24.0,0.,24.0
1979-07-01 07:20:56.880 ,4,1,0.,24.0,0.,24.0,0.,24.0,0.,24.0
1979-07-01 07:21:20.880 ,4,0,0.,24.0,0.,24.0,0.,24.0,0.,24.0
1979-07-01 07:21:44.880 ,3,1,0.,24.0,0.,24.0,0.,24.0,0.,24.0
1979-07-01 07:22:08.880 ,3,0,0.,24.0,0.,24.0,0.,24.0,0.,24.0
1979-07-01 07:22:32.880 ,2,1,0.,24.0,0.,24.0,0.,24.0,0.,24.0
1979-07-01 07:22:56.880 ,2,0,0.,24.0,0.,24.0,0.,24.0,0.,24.0
1979-07-01 07:23:20.880 ,1,1,0.,24.0,0.,24.0,0.,24.0,0.,24.0
1979-07-01 07:23:44.880 ,1,0,0.,24.0,0.,24.0,0.,24.0,0.,24.0
1979-07-01 07:24:08.880 ,0,1,0.,24.0,0.,24.0,0.,24.0,0.,24.0
1979-07-01 07:24:32.880 ,0,0,0.,24.0,0.,24.0,0.,24.0,0.,24.0
1979-07-01 07:24:56.880 ,0,1,0.,24.0,0.,24.0,0.,24.0,0.,24.0
1979-07-01 07:25:20.880 ,0,0,0.,24.0,0.,24.0,0.,24.0,0.,24.0
1979-07-01 07:25:44.880 ,1,1,0.,24.0,0.,24.0,0.,24.0,0.,24.0
1979-07-01 07:26:08.880 ,1,0,0.,24.0,0.,24.0,0.,24.0,0.,24.0
1979-07-01 07:26:32.880 ,2,1,0.,24.0,0.,24.0,0.,24.0,0.,24.0
1979-07-01 07:26:56.880 ,2,0,0.,24.0,0.,24.0,0.,24.0,0.,24.0
1979-07-01 07:27:20.880 ,3,1,0.,24.0,0.,24.0,0.,24.0,0.,24.0
1979-07-01 07:27:44.880 ,3,0,0.,24.0,0.,24.0,0.,24.0,0.,24.0
1979-07-01 07:28:08.880 ,4,1,0.,24.0,0.,24.0,0.,24.0,0.,24.0
1979-07-01 07:28:32.880 ,4,0,0.,24.0,0.,24.0,0.,24.0,0.,24.0
1979-07-01 07:28:56.880 ,5,1,0.,24.0,0.,24.0,0.,24.0,0.,24.0
1979-07-01 07:29:20.880 ,5,0,0.,24.0,0.,24.0,0.,24.0,0.,24.0
1979-07-01 07:29:44.880 ,6,1,0.,24.0,0.,24.0,0.,24.0,0.,24.0
1979-07-01 07:30:08.880 ,6,0,0.,24.0,0.,24.0,0.,24.0,0.,24.0
1979-07-01 07:30:32.880 ,7,0,0.,24.0,0.,24.0,0.,24.0,0.,24.0
1979-07-01 07:30:56.880 ,7,0,0.,24.0,0.,24.0,0.,24.0,0.,24.0
1979-07-01 07:31:20.880 ,0,0,,0,,0,,0,,0
1979-07-01 07:31:44.880 ,0,0,,0,,0,,0,,0
1979-07-01 07:31:44.880 ,0,0,0.,24.0,0.,24.0,0.,24.0,0.,24.0
1979-07-01 07:32:08.880 ,2,1,0.,24.0,0.,24.0,0.,24.0,0.,24.0
1979-07-01 07:32:32.880 ,6,1,1.,24.0,0.,24.0,0.,24.0,0.,24.0
1979-07-01 07:32:56.880 ,5,1,0.,24.0,0.,24.0,0.,24.0,0.,24.0
1979-07-01 07:33:20.880 ,1,1,0.,24.0,0.,24.0,0.,24.0,0.,24.0
1979-07-01 07:33:44.880 ,2,1,0.,24.0,0.,24.0,0.,24.0,0.,24.0
1979-07-01 07:34:08.880 ,6,1,0.,24.0,0.,24.0,0.,24.0,0.,24.0
1979-07-01 07:34:32.880 ,5,1,0.,24.0,0.,24.0,0.,24.0,0.,24.0
1979-07-01 07:34:56.880 ,1,1,0.,24.0,0.,24.0,0.,24.0,0.,24.0
1979-07-01 07:35:20.880 ,2,1,0.,24.0,0.,24.0,0.,24.0,0.,24.0
1979-07-01 07:35:44.880 ,6,1,0.,24.0,0.,24.0,0.,24.0,0.,24.0
1979-07-01 07:36:08.880 ,5,1,0.,24.0,0.,24.0,0.,24.0,0.,24.0
1979-07-01 07:36:32.880 ,1,1,0.,24.0,0.,24.0,0.,24.0,0.,24.0
1979-07-01 07:36:56.880 ,2,1,0.,24.0,0.,24.0,0.,24.0,0.,24.0
1979-07-01 07:37:20.880 ,6,1,0.,24.0,0.,24.0,0.,24.0,0.,24.0
1979-07-01 07:37:44.880 ,5,1,0.,24.0,0.,24.0,0.,24.0,0.,24.0
1979-07-01 07:38:08.880 ,1,1,1.,24.0,0.,24.0,0.,24.0,0.,24.0
1979-07-01 07:38:32.880 ,2,1,0.,24.0,0.,24.0,0.,24.0,0.,24.0
1979-07-01 07:38:56.880 ,6,1,0.,24.0,0.,24.0,0.,24.0,0.,24.0
1979-07-01 07:39:20.880 ,5,1,0.,24.0,0.,24.0,0.,24.0,0.,24.0
1979-07-01 07:39:44.880 ,1,1,0.,24.0,0.,24.0,0.,24.0,0.,24.0
1979-07-01 07:40:08.880 ,2,1,0.,24.0,0.,24.0,0.,24.0,0.,24.0
1979-07-01 07:40:32.880 ,6,1,0.,24.0,0.,24.0,0.,24.0,0.,24.0
1979-07-01 07:40:56.880 ,5,1,0.,24.0,0.,24.0,0.,24.0,0.,24.0
1979-07-01 07:41:20.880 ,1,1,0.,24.0,0.,24.0,0.,24.0,0.,24.0
1979-07-01 07:41:44.880 ,0,0,0.,24.0,0.,24.0,0.,24.0,0.,24.0
1979-07-01 07:42:08.880 ,0,0,0.,24.0,0.,24.0,0.,24.0,0.,24.0
1979-07-01 07:42:32.880 ,5,1,1.,24.0,0.,24.0,0.,24.0,0.,24.0
1979-07-01 07:42:56.880 ,5,0,0.,24.0,0.,24.0,0.,24.0,0.,24.0
1979-07-01 07:43:20.880 ,4,1,0.,24.0,0.,24.0,0.,24.0,0.,24.0
1979-07-01 07:43:44.880 ,4,0,0.,24.0,0.,24.0,0.,24.0,0.,24.0
1979-07-01 07:44:08.880 ,3,1,0.,24.0,0.,24.0,0.,24.0,0.,24.0
1979-07-01 07:44:32.880 ,3,0,0.,24.0,0.,24.0,0.,24.0,0.,24.0
1979-07-01 07:44:56.880 ,2,1,0.,24.0,0.,24.0,0.,24.0,0.,24.0
1979-07-01 07:45:20.880 ,2,0,0.,24.0,0.,24.0,0.,24.0,0.,24.0
1979-07-01 07:45:44.880 ,1,1,1.,24.0,0.,24.0,0.,24.0,0.,24.0
1979-07-01 07:46:08.880 ,1,0,0.,24.0,0.,24.0,0.,24.0,0.,24.0
1979-07-01 07:46:32.880 ,0,1,0.,24.0,0.,24.0,0.,24.0,0.,24.0
1979-07-01 07:46:56.880 ,0,0,0.,24.0,0.,24.0,0.,24.0,0.,24.0
1979-07-01 07:47:20.880 ,0,1,1.,24.0,0.,24.0,0.,24.0,0.,24.0
1979-07-01 07:47:44.880 ,0,0,0.,24.0,0.,24.0,0.,24.0,0.,24.0
1979-07-01 07:48:08.880 ,1,1,0.,24.0,0.,24.0,0.,24.0,0.,24.0
1979-07-01 07:48:32.880 ,1,0,0.,24.0,0.,24.0,0.,24.0,0.,24.0
1979-07-01 07:48:56.880 ,2,1,0.,24.0,0.,24.0,0.,24.0,0.,24.0
1979-07-01 07:49:20.880 ,2,0,0.,24.0,0.,24.0,0.,24.0,0.,24.0
1979-07-01 07:49:44.880 ,3,1,0.,24.0,0.,24.0,0.,24.0,0.,24.0
1979-07-01 07:50:08.880 ,3,0,0.,24.0,0.,24.0,0.,24.0,0.,24.0
1979-07-01 07:50:32.880 ,4,1,0.,24.0,0.,24.0,0.,24.0,0.,24.0
1979-07-01 07:50:56.880 ,4,0,0.,24.0,0.,24.0,0.,24.0,0.,24.0
1979-07-01 07:51:20.880 ,5,1,0.,24.0,0.,24.0,0.,24.0,0.,24.0
1979-07-01 07:51:44.880 ,5,0,0.,24.0,0.,24.0,0.,24.0,0.,24.0
1979-07-01 07:52:08.880 ,6,1,0.,24.0,0.,24.0,0.,24.0,0.,24.0
1979-07-01 07:52:32.880 ,6,0,0.,24.0,0.,24.0,0.,24.0,0.,24.0
1979-07-01 07:52:56.880 ,7,1,0.,24.0,0.,24.0,0.,24.0,0.,24.0
1979-07-01 07:53:20.880 ,7,0,0.,24.0,0.,24.0,0.,24.0,0.,24.0
1979-07-01 07:53:44.880 ,7,1,0.,24.0,0.,24.0,0.,24.0,0.,24.0
1979-07-01 07:54:08.880 ,7,0,0.,24.0,0.,24.0,0.,24.0,0.,24.0
1979-07-01 07:54:32.880 ,6,1,0.,24.0,0.,24.0,0.,24.0,0.,24.0
1979-07-01 07:54:56.880 ,6,0,0.,24.0,0.,24.0,0.,24.0,0.,24.0
1979-07-01 07:55:20.880 ,5,1,0.,24.0,0.,24.0,0.,24.0,0.,24.0
1979-07-01 07:55:44.880 ,5,0,0.,24.0,0.,24.0,0.,24.0,0.,24.0
1979-07-01 07:56:08.880 ,4,1,0.,24.0,0.,24.0,0.,24.0,0.,24.0
1979-07-01 07:56:32.880 ,4,0,0.,24.0,0.,24.0,0.,24.0,0.,24.0
1979-07-01 07:56:56.880 ,3,1,0.,24.0,0.,24.0,0.,24.0,0.,24.0
1979-07-01 07:57:20.880 ,3,0,0.,24.0,0.,24.0,0.,24.0,0.,24.0
1979-07-01 07:57:44.880 ,2,1,0.,24.0,0.,24.0,0.,24.0,0.,24.0
1979-07-01 07:58:08.880 ,2,0,0.,24.0,0.,24.0,0.,24.0,0.,24.0
1979-07-01 07:58:32.880 ,1,1,0.,24.0,0.,24.0,0.,24.0,0.,24.0
1979-07-01 07:58:56.880 ,1,0,0.,24.0,0.,24.0,0.,24.0,0.,24.0
1979-07-01 07:59:20.880 ,0,1,0.,24.0,0.,24.0,0.,24.0,0.,24.0
1979-07-01 07:59:44.880 ,0,0,0.,24.0,0.,24.0,0.,24.0,0.,24.0
1979-07-01 08:00:08.880 ,0,1,0.,24.0,0.,24.0,0.,24.0,0.,24.0
1979-07-01 08:00:32.880 ,0,0,0.,24.0,0.,24.0,0.,24.0,0.,24.0
1979-07-01 08:00:56.880 ,1,1,0.,24.0,0.,24.0,0.,24.0,0.,24.0
1979-07-01 08:01:20.880 ,1,0,0.,24.0,0.,24.0,0.,24.0,0.,24.0
1979-07-01 08:01:44.880 ,2,1,1.,24.0,0.,24.0,0.,24.0,0.,24.0
1979-07-01 08:02:08.880 ,2,0,0.,24.0,0.,24.0,0.,24.0,0.,24.0
1979-07-01 08:02:32.880 ,3,1,0.,24.0,0.,24.0,0.,24.0,0.,24.0
1979-07-01 08:02:56.880 ,3,0,0.,24.0,0.,24.0,0.,24.0,0.,24.0
1979-07-01 08:03:20.880 ,4,1,0.,24.0,0.,24.0,0.,24.0,0.,24.0
1979-07-01 08:03:44.880 ,4,0,0.,24.0,0.,24.0,0.,24.0,0.,24.0
1979-07-01 08:04:08.880 ,5,1,0.,24.0,0.,24.0,0.,24.0,0.,24.0
1979-07-01 08:04:32.880 ,5,0,0.,24.0,0.,24.0,0.,24.0,0.,24.0
1979-07-01 08:04:56.880 ,6,1,0.,24.0,0.,24.0,0.,24.0,0.,24.0
1979-07-01 08:05:20.880 ,6,0,0.,24.0,0.,24.0,0.,24.0,0.,24.0
1979-07-01 08:05:44.880 ,7,1,0.,24.0,0.,24.0,0.,24.0,0.,24.0
1979-07-01 08:06:08.880 ,7,0,0.,24.0,0.,24.0,0.,24.0,0.,24.0
1979-07-01 08:06:32.880 ,7,1,0.,24.0,0.,24.0,0.,24.0,0.,24.0
1979-07-01 08:06:56.880 ,7,0,0.,24.0,0.,24.0,0.,24.0,0.,24.0
1979-07-01 08:07:20.880 ,6,1,0.,24.0,0.,24.0,0.,24.0,0.,24.0
1979-07-01 08:07:44.880 ,6,0,0.,24.0,0.,24.0,0.,24.0,0.,24.0
1979-07-01 08:08:08.880 ,5,1,0.,24.0,0.,24.0,0.,24.0,0.,24.0
1979-07-01 08:08:32.880 ,5,0,0.,24.0,0.,24.0,0.,24.0,0.,24.0
1979-07-01 08:08:56.880 ,4,1,0.,24.0,0.,24.0,0.,24.0,0.,24.0
1979-07-01 08:09:20.880 ,4,0,0.,24.0,0.,24.0,0.,24.0,0.,24.0
1979-07-01 08:09:44.880 ,3,1,0.,24.0,0.,24.0,0.,24.0,0.,24.0
1979-07-01 08:10:08.880 ,3,0,0.,24.0,0.,24.0,0.,24.0,0.,24.0
1979-07-01 08:10:32.870 ,2,1,0.,24.0,0.,24.0,0.,24.0,0.,24.0
1979-07-01 08:10:56.870 ,2,0,0.,24.0,0.,24.0,0.,24.0,0.,24.0
1979-07-01 08:11:20.870 ,1,1,0.,24.0,0.,24.0,0.,24.0,0.,24.0
1979-07-01 08:11:44.870 ,1,0,0.,24.0,0.,24.0,0.,24.0,0.,24.0
1979-07-01 08:12:08.870 ,0,1,0.,24.0,0.,24.0,0.,24.0,0.,24.0
1979-07-01 08:12:32.870 ,0,0,0.,24.0,0.,24.0,0.,24.0,0.,24.0
1979-07-01 08:12:56.870 ,0,1,0.,24.0,0.,24.0,0.,24.0,0.,24.0
1979-07-01 08:13:20.870 ,0,0,0.,24.0,0.,24.0,0.,24.0,0.,24.0
1979-07-01 08:13:44.870 ,1,1,0.,24.0,0.,24.0,0.,24.0,0.,24.0
1979-07-01 08:14:08.870 ,1,0,0.,24.0,0.,24.0,0.,24.0,0.,24.0
1979-07-01 08:14:32.870 ,2,1,0.,24.0,0.,24.0,0.,24.0,0.,24.0
1979-07-01 08:14:56.870 ,2,0,0.,24.0,0.,24.0,0.,24.0,0.,24.0
1979-07-01 08:15:20.870 ,3,1,1.,24.0,0.,24.0,0.,24.0,0.,24.0
1979-07-01 08:15:44.870 ,3,0,0.,24.0,0.,24.0,0.,24.0,0.,24.0
1979-07-01 08:16:08.870 ,4,1,0.,24.0,0.,24.0,0.,24.0,0.,24.0
1979-07-01 08:16:32.870 ,4,0,0.,24.0,0.,24.0,0.,24.0,0.,24.0
1979-07-01 08:16:56.870 ,5,1,0.,24.0,0.,24.0,0.,24.0,1.,24.0
1979-07-01 08:17:20.870 ,5,0,0.,24.0,0.,24.0,0.,24.0,0.,24.0
1979-07-01 08:17:44.870 ,6,1,0.,24.0,0.,24.0,0.,24.0,0.,24.0
1979-07-01 08:18:08.870 ,6,0,0.,24.0,0.,24.0,0.,24.0,0.,24.0
1979-07-01 08:18:32.870 ,7,0,0.,24.0,0.,24.0,0.,24.0,0.,24.0
1979-07-01 08:18:56.870 ,7,0,0.,24.0,0.,24.0,0.,24.0,0.,24.0
1979-07-01 08:19:20.870 ,5,1,0.,24.0,0.,24.0,0.,24.0,0.,24.0
1979-07-01 08:19:44.870 ,1,1,0.,24.0,0.,24.0,0.,24.0,0.,24.0
1979-07-01 08:20:08.870 ,2,1,0.,24.0,0.,24.0,0.,24.0,0.,24.0
1979-07-01 08:20:32.870 ,6,1,0.,24.0,0.,24.0,0.,24.0,0.,24.0
1979-07-01 08:20:56.870 ,5,1,0.,24.0,0.,24.0,0.,24.0,0.,24.0
1979-07-01 08:21:20.870 ,1,1,0.,24.0,0.,24.0,0.,24.0,0.,24.0
1979-07-01 08:21:44.870 ,2,1,0.,24.0,0.,24.0,0.,24.0,0.,24.0
1979-07-01 08:22:08.870 ,6,1,0.,24.0,0.,24.0,0.,24.0,0.,24.0
1979-07-01 08:22:32.870 ,5,1,0.,24.0,0.,24.0,0.,24.0,0.,24.0
1979-07-01 08:22:56.870 ,1,1,0.,24.0,0.,24.0,0.,24.0,0.,24.0
1979-07-01 08:23:20.870 ,2,1,0.,24.0,0.,24.0,0.,24.0,0.,24.0
1979-07-01 08:23:44.870 ,6,1,0.,24.0,0.,24.0,0.,24.0,0.,24.0
1979-07-01 08:24:08.870 ,5,1,0.,24.0,0.,24.0,0.,24.0,0.,24.0
1979-07-01 08:24:32.870 ,1,1,0.,24.0,0.,24.0,0.,24.0,0.,24.0
1979-07-01 08:24:56.870 ,2,1,0.,24.0,0.,24.0,0.,24.0,0.,24.0
1979-07-01 08:25:20.870 ,6,1,0.,24.0,0.,24.0,0.,24.0,0.,24.0
1979-07-01 08:25:44.870 ,5,1,0.,24.0,0.,24.0,0.,24.0,0.,24.0
1979-07-01 08:26:08.870 ,1,1,0.,24.0,0.,24.0,0.,24.0,0.,24.0
1979-07-01 08:26:32.870 ,2,1,0.,24.0,0.,24.0,0.,24.0,0.,24.0
1979-07-01 08:26:56.870 ,6,1,0.,24.0,0.,24.0,0.,24.0,0.,24.0
1979-07-01 08:27:20.870 ,5,1,0.,24.0,0.,24.0,0.,24.0,0.,24.0
1979-07-01 08:27:44.870 ,1,1,0.,24.0,0.,24.0,0.,24.0,0.,24.0
1979-07-01 08:28:08.870 ,2,1,0.,24.0,0.,24.0,0.,24.0,0.,24.0
1979-07-01 08:28:32.870 ,6,1,0.,24.0,0.,24.0,0.,24.0,0.,24.0
1979-07-01 08:28:56.870 ,5,1,0.,24.0,0.,24.0,0.,24.0,0.,24.0
1979-07-01 08:29:20.870 ,1,1,0.,24.0,0.,24.0,0.,24.0,0.,24.0
1979-07-01 08:29:44.870 ,0,0,0.,24.0,0.,24.0,0.,24.0,0.,24.0
1979-07-01 08:30:08.870 ,0,0,0.,24.0,0.,24.0,0.,24.0,0.,24.0
1979-07-01 08:30:32.870 ,5,1,0.,24.0,0.,24.0,0.,24.0,0.,24.0
1979-07-01 08:30:56.870 ,5,0,0.,24.0,0.,24.0,0.,24.0,0.,24.0
1979-07-01 08:31:20.870 ,4,1,0.,24.0,0.,24.0,0.,24.0,0.,24.0
1979-07-01 08:31:44.870 ,4,0,0.,24.0,0.,24.0,0.,24.0,0.,24.0
1979-07-01 08:32:08.870 ,3,1,0.,24.0,0.,24.0,0.,24.0,0.,24.0
1979-07-01 08:32:32.870 ,3,0,0.,24.0,0.,24.0,0.,24.0,0.,24.0
1979-07-01 08:32:56.870 ,2,1,0.,24.0,0.,24.0,0.,24.0,0.,24.0
1979-07-01 08:33:20.870 ,2,0,0.,24.0,0.,24.0,0.,24.0,0.,24.0
1979-07-01 08:33:44.870 ,1,1,0.,24.0,0.,24.0,0.,24.0,0.,24.0
1979-07-01 08:34:08.870 ,1,0,0.,24.0,0.,24.0,0.,24.0,0.,24.0